This is the latest recevied weather packets stored in our database for station/object KC5EZZ-2. If no packets are shown the sender has not sent any weather packets the latest 10 day(s).
| Time | Temp. | Humidity | Pressure | Rain* | Wind** | Luminosity | Snow |
|---|---|---|---|---|---|---|---|
| 1787858212 | 38.33° C | - | - | 0 mm | 2.24 m/s, 359° | - | - |
| 1787857912 | 38.33° C | - | - | 0 mm | 3.58 m/s, 349° | - | - |
| 1787857612 | 40° C | - | - | 0 mm | 3.13 m/s, 3° | - | - |
| 1787857309 | 40° C | - | - | 0 mm | 0.89 m/s, 290° | - | - |
| 1787857009 | 40° C | - | - | 0 mm | 2.68 m/s, 58° | - | - |
| 1787856709 | 40.56° C | - | - | 0 mm | 3.58 m/s, 129° | - | - |
| 1787856406 | 40.56° C | - | - | 0 mm | 1.34 m/s, 80° | - | - |
| 1787856106 | 39.44° C | - | - | 0 mm | 3.13 m/s, 89° | - | - |
| 1787855806 | 38.89° C | - | - | 0 mm | 2.24 m/s, 103° | - | - |
| 1787855570 | 40° C | - | - | 0 mm | 1.79 m/s, 77° | - | - |
| 1787855513 | 40° C | - | - | 0 mm | 0.45 m/s, 294° | - | - |
| 1787855503 | 40° C | - | - | 0 mm | 1.79 m/s, 77° | - | - |
| 1787855203 | 40° C | - | - | 0 mm | 0.45 m/s, 294° | - | - |
| 1787854951 | 37.78° C | - | - | 0 mm | 1.79 m/s, 339° | - | - |
| 1787854903 | 38.33° C | - | - | 0 mm | 3.13 m/s, 84° | - | - |
| 1787854601 | 37.78° C | - | - | 0 mm | 1.79 m/s, 339° | - | - |
| 1787854302 | 38.33° C | - | - | 0 mm | 4.92 m/s, 86° | - | - |
| 1787854001 | 38.33° C | - | - | 0 mm | 0.89 m/s, 31° | - | - |
| 1787853698 | 38.33° C | - | - | 0 mm | 2.68 m/s, 0° | - | - |
| 1787853399 | 37.78° C | - | - | 0 mm | 2.68 m/s, 11° | - | - |
| 1787853098 | 38.89° C | - | - | 0 mm | 3.13 m/s, 314° | - | - |
| 1787852794 | 37.78° C | - | - | 0 mm | 0 m/s | - | - |
| 1787852495 | 37.22° C | - | - | 0 mm | 3.13 m/s, 23° | - | - |
| 1787852194 | 38.33° C | - | - | 0 mm | 4.47 m/s, 336° | - | - |
| 1787851891 | 37.78° C | - | - | 0 mm | 3.58 m/s, 321° | - | - |
* Rain latest hour (hover to see other rain measurements)
** Current wind speed in m/s (hover to see current wind gust speed)